Regional Weather Roundup
Issued by NWS

Home | Current Version | Previous Version | Graphics & Text | Print | Product List | Glossary On
Versions: 1 2 3 4 5 6 7 8 9 10 11 12 13 14 15 16 17 18 19 20 21 22 23 24 25 26 27 28
000
ASUS45 KBOU 091007
RWRCO

WEATHER ROUNDUP FOR COLORADO
NATIONAL WEATHER SERVICE DENVER/BOULDER CO
300 AM MST FRI DEC 09 2016

NOTE: "FAIR" INDICATES FEW OR NO CLOUDS BELOW 12000 FEET WITH NO
SIGNIFICANT WEATHER AND/OR OBSTRUCTIONS TO VISIBILITY.

COZ001>005-013-030-031-091100-
...NORTHWEST COLORADO...

CITY           SKY/WX    TMP DP  RH WIND       PRES   REMARKS
CRAIG          CLOUDY    24  17  74 E5        30.17S WCI  18
HAYDEN         CLOUDY    19  12  73 SE8       30.17R WCI   9
MEEKER         CLOUDY    33  19  56 VRB5      30.19S WCI  29
MOUNT WERNER   NOT AVBL
STEAMBOAT SPGS CLOUDY    15  13  91 CALM      30.16F
WALDEN           N/A     25  19  80 SW17G24   30.08F WCI  11
$$

COZ006>008-011-091100-
...WEST CENTRAL VALLEYS...

CITY           SKY/WX    TMP DP  RH WIND       PRES   REMARKS
GRAND JUNCTION FAIR      19  14  81 CALM      30.29R
MONTROSE       CLOUDY    27  18  69 CALM      30.28R
EAGLE          LGT SNOW  23  21  92 E7        30.24S FOG     WCI  15
RIFLE          CLOUDY    24  16  71 CALM      30.28S
DELTA          CLOUDY    28  16  58 CALM      30.28S
NUCLA          CLOUDY    30  16  55 CALM      30.30S
$$

COZ017>023-064>068-091100-
...SOUTHWEST COLORADO...

CITY           SKY/WX    TMP DP  RH WIND       PRES   REMARKS
DURANGO        CLOUDY    25  15  66 NE5       30.30R WCI  19
CORTEZ         MOCLDY    28  23  81 E5        30.29S WCI  23
PAGOSA SPRINGS CLOUDY    22  14  69 CALM      30.30R
TELLURIDE      CLOUDY    29  27  91 SW3       30.27S
WOLF CREEK PAS LGT SNOW  14  14 100 SW18G25   30.28S VSB 3/4 WCI  -3
$$

COZ009-010-012-014-032>034-037-058>063-091100-
...CENTRAL COLORADO...

CITY           SKY/WX    TMP DP  RH WIND       PRES   REMARKS
ASPEN          NOT AVBL
BUENA VISTA    MOCLDY    34  21  59 W16G25    30.14R WCI  24
COPPER MTN     LGT SNOW  23  18  80 MISG      30.14S
BERTHOUD PASS  HVY SNOW  14   3  62 MISG      30.07R VSB 1/4
COTTONWOOD PAS LGT SNOW  32  23  69 W20G45    30.13R WCI  20
GUNNISON       FLURRIES  16  13  88 CALM      30.30R
KREMMLING      LGT SNOW  23  21  93 SE7       30.16S WCI  15
LEADVILLE      LGT SNOW  22  19  89 N6        30.14F VSB 1   WCI  14
MONARCH PASS   CLOUDY    18  14  86 W32G40    30.30R WCI  -3
SALIDA         MOCLDY    33  17  52 SW7       30.23R WCI  26
SUNLIGHT       LGT SNOW  19  18  93 SW16G23   30.22S WCI   5
WILKERSON PASS FAIR      21  18  86 W13G25    30.12R WCI   9
$$

COZ069>075-091100-
...SAN LUIS VALLEY/SANGRE DE CRISTO MOUNTAINS...

CITY           SKY/WX    TMP DP  RH WIND       PRES   REMARKS
ALAMOSA        FAIR       2  -3  80 N8        30.24S WCI -12
LA VETA PASS   FAIR      19  12  73 NE28G48   30.09S WCI   1
SAGUACHE       FAIR      12   9  85 NW8       30.24S WCI   1
$$

COZ035-036-038>040-091100-
...NORTHERN COLORADO FRONT RANGE...

CITY           SKY/WX    TMP DP  RH WIND       PRES   REMARKS
DENVER INTL AP FAIR       5   1  83 SW8       30.09F WCI  -8
DMNS CITY PARK   N/A      7   3  82 E5G10     30.10F WCI  -2
AURORA         PTCLDY     3   0  87 S3        30.09F
FRONT RANGE AP FAIR       9   5  85 SW6       30.10F WCI  -1
ERIE MUNI ARPT FAIR       0  -3  85 CALM      30.13F
BOULDER MUN AP FAIR       5   3  92 CALM      30.10F
CENTENNIAL     FAIR       6   3  87 S5        30.07F WCI  -3
BROOMFIELD     FAIR       7   3  85 NE5       30.09F WCI  -2
FORT COLLINS   FAIR       5   1  85 SE3       30.13F
LONGMONT       FAIR       3  -1  81 N3        30.16R
$$

COZ041-046-047-076>085-087-088-091100-
...PIKES PEAK/PALMER DIVIDE AND SOUTHERN FOOTHILLS...

CITY           SKY/WX    TMP DP  RH WIND       PRES   REMARKS
COLO. SPRINGS  FAIR       5   1  83 VRB3      30.12S
A. F. ACADEMY  FAIR       1  -3  82 N7        30.08F WCI -11
SCHRIEVER AFB  NOT AVBL
ELLICOTT       FAIR     N/A N/A N/A N3          N/A
FALCON         FAIR      10   7  86 CALM      30.08R
FORT CARSON    FAIR       7   1  76 NW5       30.11S WCI  -1
LIMON          FAIR      -1  -4  87 S6        30.14F WCI -13
MONUMENT HILL  FAIR      12   9  85 CALM      30.06R
TRINIDAD       FAIR      21  11  65 W20       30.13S WCI   6
$$

COZ042>045-048>051-090-091-091100-
...NORTHEAST COLORADO...

CITY           SKY/WX    TMP DP  RH WIND       PRES   REMARKS
GREELEY ARPT   FAIR       7   3  84 VRB3      30.16F
AKRON          MOCLDY     8   0  69 S10       30.16F WCI  -6
BURLINGTON     FAIR       6  -1  73 S10       30.24F WCI  -9
WRAY           NOT AVBL
STERLING       MOCLDY    16   9  73 S9        30.19F WCI   4
HOLYOKE        FAIR      14   9  79 SE8       30.27F WCI   3
FORT MORGAN    FAIR      10   2  71 SE8       30.16F WCI  -3
$$

COZ086-089-092>099-091100-
...SOUTHEAST COLORADO...

CITY           SKY/WX    TMP DP  RH WIND       PRES   REMARKS
PUEBLO         FAIR       7   1  76 CALM      30.19F
LA JUNTA       FAIR       9   3  77 W6        30.23S WCI  -1
LAMAR          FAIR       7   2  80 E3        30.24F
SPRINGFIELD      N/A     22  16  78 S17       30.21F WCI   8
$$




USA.gov is the U.S. government's official web portal to all federal, state and local government web resources and services.